• In Belgium
  • List of Countries
  • For 7 days
  • Water Temperature
  • Satellite Maps
  • Weather Map
  • Weather Widgets
  • user-avatar
    Login

    Hourly Weather Amanzimtoti

    Today, 28 May, Monday

    Time Temperature Precipitation Wind Pressure Humidity
    00:00 +19°C° 0.1 mm 3 mps 763 mmHg 92%
    01:00 +18°C° 0.1 mm 3 mps 763 mmHg 92%
    02:00 +18°C° 0.1 mm 4 mps 762 mmHg 92%
    03:00 +17°C° 0 mm 4 mps 762 mmHg 92%
    04:00 +17°C° 0 mm 4 mps 762 mmHg 93%
    05:00 +15°C° 0 mm 4 mps 761 mmHg 93%
    06:00 +17°C° 0 mm 4 mps 761 mmHg 89%
    07:00 +16°C° 0 mm 5 mps 761 mmHg 86%
    08:00 +17°C° 0 mm 5 mps 761 mmHg 82%
    09:00 +20°C° 0 mm 5 mps 761 mmHg 70%
    10:00 +23°C° 0 mm 5 mps 760 mmHg 59%
    11:00 +27°C° 0 mm 6 mps 760 mmHg 47%
    12:00 +28°C° 0 mm 6 mps 759 mmHg 44%
    13:00 +29°C° 0 mm 6 mps 758 mmHg 42%
    14:00 +30°C° 0 mm 6 mps 757 mmHg 40%
    15:00 +28°C° 0 mm 6 mps 757 mmHg 49%
    16:00 +26°C° 0 mm 6 mps 757 mmHg 58%
    17:00 +22°C° 0 mm 6 mps 757 mmHg 67%
    18:00 +22°C° 0 mm 6 mps 757 mmHg 66%
    19:00 +21°C° 0 mm 6 mps 757 mmHg 65%
    20:00 +20°C° 0 mm 6 mps 757 mmHg 64%
    21:00 +20°C° 0 mm 6 mps 757 mmHg 59%
    22:00 +20°C° 0 mm 6 mps 757 mmHg 54%
    23:00 +20°C° 0 mm 5 mps 757 mmHg 50%

    Tomorrow, 29 May, Tuesday

    Time Temperature Precipitation Wind Pressure Humidity
    00:00 +20°C° 0 mm 5 mps 756 mmHg 47%
    01:00 +20°C° 0 mm 5 mps 756 mmHg 43%
    02:00 +20°C° 0 mm 5 mps 755 mmHg 40%
    03:00 +20°C° 0 mm 5 mps 755 mmHg 38%
    04:00 +20°C° 0 mm 5 mps 755 mmHg 36%
    05:00 +20°C° 0 mm 4 mps 754 mmHg 34%
    06:00 +21°C° 0 mm 5 mps 755 mmHg 38%
    07:00 +21°C° 0 mm 5 mps 755 mmHg 43%
    08:00 +21°C° 0 mm 6 mps 756 mmHg 47%
    09:00 +23°C° 0 mm 6 mps 756 mmHg 46%
    10:00 +26°C° 0 mm 6 mps 756 mmHg 45%
    11:00 +27°C° 0 mm 5 mps 756 mmHg 44%
    12:00 +26°C° 0.1 mm 6 mps 756 mmHg 51%
    13:00 +26°C° 0.1 mm 7 mps 756 mmHg 59%
    14:00 +24°C° 0.1 mm 7 mps 756 mmHg 66%
    15:00 +22°C° 0.9 mm 7 mps 756 mmHg 74%
    16:00 +21°C° 0.9 mm 6 mps 757 mmHg 82%
    17:00 +20°C° 0.9 mm 6 mps 757 mmHg 89%
    18:00 +20°C° 0.8 mm 6 mps 758 mmHg 90%
    19:00 +19°C° 0.8 mm 6 mps 758 mmHg 91%
    20:00 +19°C° 0.8 mm 6 mps 759 mmHg 91%
    21:00 +17°C° 0.5 mm 6 mps 759 mmHg 91%
    22:00 +17°C° 0.5 mm 7 mps 760 mmHg 91%
    23:00 +17°C° 0.5 mm 7 mps 760 mmHg 91%

    Day after tomorrow, 30 May, Wednesday

    Time Temperature Precipitation Wind Pressure Humidity
    00:00 +16°C° 0.4 mm 6 mps 760 mmHg 90%
    01:00 +16°C° 0.4 mm 6 mps 760 mmHg 90%
    02:00 +15°C° 0.4 mm 5 mps 760 mmHg 89%
    03:00 +15°C° 0.1 mm 5 mps 760 mmHg 88%
    04:00 +15°C° 0.1 mm 5 mps 760 mmHg 88%
    05:00 +15°C° 0.1 mm 4 mps 760 mmHg 87%
    06:00 +15°C° 0 mm 4 mps 760 mmHg 85%
    07:00 +17°C° 0 mm 3 mps 761 mmHg 83%
    08:00 +17°C° 0 mm 3 mps 761 mmHg 81%
    09:00 +19°C° 0 mm 3 mps 761 mmHg 70%
    10:00 +21°C° 0 mm 2 mps 760 mmHg 59%
    11:00 +24°C° 0 mm 1 mps 760 mmHg 48%
    12:00 +24°C° 0 mm 2 mps 759 mmHg 49%
    13:00 +24°C° 0 mm 2 mps 758 mmHg 50%
    14:00 +24°C° 0 mm 2 mps 757 mmHg 50%
    15:00 +21°C° 0 mm 3 mps 757 mmHg 59%
    16:00 +20°C° 0 mm 3 mps 757 mmHg 67%
    17:00 +19°C° 0 mm 4 mps 757 mmHg 75%
    18:00 +18°C° 0 mm 4 mps 757 mmHg 80%
    19:00 +16°C° 0 mm 5 mps 757 mmHg 86%
    20:00 +15°C° 0 mm 5 mps 757 mmHg 91%
    21:00 +15°C° 0 mm 5 mps 757 mmHg 91%
    22:00 +14°C° 0 mm 5 mps 757 mmHg 91%
    23:00 +14°C° 0 mm 5 mps 757 mmHg 92%

    31 May, Thursday

    Time Temperature Precipitation Wind Pressure Humidity
    00:00 +14°C° 0 mm 5 mps 757 mmHg 90%
    01:00 +13°C° 0 mm 4 mps 756 mmHg 88%
    02:00 +13°C° 0 mm 4 mps 756 mmHg 87%
    03:00 +13°C° 0 mm 3 mps 756 mmHg 80%
    04:00 +13°C° 0 mm 3 mps 756 mmHg 73%
    05:00 +12°C° 0 mm 3 mps 756 mmHg 67%
    06:00 +13°C° 0 mm 3 mps 756 mmHg 59%
    07:00 +14°C° 0 mm 3 mps 757 mmHg 52%
    08:00 +16°C° 0 mm 3 mps 757 mmHg 44%
    09:00 +19°C° 0 mm 3 mps 757 mmHg 39%
    10:00 +24°C° 0 mm 2 mps 756 mmHg 33%
    11:00 +27°C° 0 mm 2 mps 756 mmHg 28%
    12:00 +27°C° 0 mm 3 mps 756 mmHg 31%
    13:00 +27°C° 0 mm 4 mps 755 mmHg 35%
    14:00 +26°C° 0 mm 5 mps 755 mmHg 38%
    15:00 +23°C° 0 mm 4 mps 755 mmHg 48%
    16:00 +21°C° 0 mm 4 mps 756 mmHg 58%
    17:00 +19°C° 0 mm 4 mps 756 mmHg 68%
    18:00 +18°C° 0 mm 3 mps 756 mmHg 71%
    19:00 +18°C° 0 mm 3 mps 757 mmHg 74%
    20:00 +17°C° 0 mm 2 mps 757 mmHg 77%
    21:00 +16°C° 0 mm 2 mps 757 mmHg 77%
    22:00 +16°C° 0 mm 2 mps 757 mmHg 77%
    23:00 +16°C° 0 mm 2 mps 756 mmHg 77%

    1 June, Friday

    Time Temperature Precipitation Wind Pressure Humidity
    00:00 +15°C° 0 mm 2 mps 756 mmHg 77%
    01:00 +15°C° 0 mm 2 mps 756 mmHg 76%
    02:00 +15°C° 0 mm 2 mps 755 mmHg 76%
    03:00 +14°C° 0 mm 3 mps 755 mmHg 73%
    04:00 +13°C° 0 mm 3 mps 755 mmHg 70%
    05:00 +13°C° 0 mm 3 mps 754 mmHg 67%
    06:00 +14°C° 0 mm 3 mps 755 mmHg 60%
    07:00 +14°C° 0 mm 3 mps 755 mmHg 54%
    08:00 +16°C° 0 mm 3 mps 755 mmHg 48%
    09:00 +20°C° 0 mm 2 mps 755 mmHg 41%
    10:00 +24°C° 0 mm 2 mps 755 mmHg 33%
    11:00 +28°C° 0 mm 2 mps 755 mmHg 26%
    12:00 +28°C° 0 mm 2 mps 755 mmHg 27%
    13:00 +29°C° 0 mm 3 mps 754 mmHg 28%
    14:00 +29°C° 0 mm 3 mps 754 mmHg 29%
    15:00 +26°C° 0 mm 3 mps 754 mmHg 40%
    16:00 +23°C° 0 mm 2 mps 755 mmHg 51%
    17:00 +21°C° 0 mm 1 mps 755 mmHg 61%
    18:00 +19°C° 0 mm 2 mps 756 mmHg 65%
    19:00 +18°C° 0 mm 2 mps 757 mmHg 69%
    20:00 +17°C° 0 mm 3 mps 758 mmHg 72%
    21:00 +17°C° 0 mm 3 mps 758 mmHg 71%
    22:00 +17°C° 0 mm 3 mps 759 mmHg 69%
    23:00 +16°C° 0 mm 3 mps 759 mmHg 68%

    2 June, Saturday

    Time Temperature Precipitation Wind Pressure Humidity
    00:00 +16°C° 0 mm 3 mps 759 mmHg 67%
    01:00 +16°C° 0 mm 2 mps 759 mmHg 66%
    02:00 +16°C° 0 mm 2 mps 759 mmHg 65%
    03:00 +15°C° 0 mm 2 mps 759 mmHg 65%
    04:00 +15°C° 0 mm 2 mps 759 mmHg 65%
    05:00 +15°C° 0 mm 2 mps 759 mmHg 65%
    06:00 +14°C° 0 mm 3 mps 759 mmHg 63%
    07:00 +16°C° 0 mm 3 mps 759 mmHg 61%
    08:00 +15°C° 0 mm 4 mps 759 mmHg 59%
    09:00 +19°C° 0 mm 4 mps 759 mmHg 51%
    10:00 +22°C° 0 mm 4 mps 758 mmHg 42%
    11:00 +27°C° 0 mm 4 mps 758 mmHg 34%
    12:00 +27°C° 0 mm 4 mps 757 mmHg 33%
    13:00 +28°C° 0 mm 4 mps 757 mmHg 31%
    14:00 +29°C° 0 mm 4 mps 756 mmHg 30%
    15:00 +26°C° 0 mm 3 mps 757 mmHg 39%
    16:00 +24°C° 0 mm 2 mps 757 mmHg 48%
    17:00 +20°C° 0 mm 2 mps 757 mmHg 57%
    18:00 +19°C° 0 mm 2 mps 758 mmHg 60%
    19:00 +19°C° 0 mm 2 mps 758 mmHg 62%
    20:00 +18°C° 0 mm 2 mps 759 mmHg 65%
    21:00 +17°C° 0 mm 2 mps 759 mmHg 63%
    22:00 +17°C° 0 mm 2 mps 759 mmHg 62%
    23:00 +17°C° 0 mm 2 mps 759 mmHg 61%
    Show more